Probability
0 0 0 0 0 0 0 0 0 0 0 0 0 0 0 0 0 0 0 0 0 0 0 0 0 0 0 0 0 0 0 0 0 0 0 0 0 0 0 0 0 0 0
0 0 0 0 0 0 0 0 0 0 0 0 0 0 0 0 0 0 0 0 0 0 0 0 0 0 0 0 0 0 0 0 0 0 0 0 0 0 0 0 0 0 0
0 0 0 0 0 0 0 0 0 0 0 0 0 0 0 0 0 0 0 0 0 0 0 0 0 0 0 0 0 0 0 0 0 0 0 0 0 0 0 0 0 0 0
0 0 0 0 0 0 0 0 0 0 0 0 0 0 0 0 0 0 0 0 0 0 0 0 0 0 0 0 0 0 0 0 0 0 0 0 0 0 0 0 0 0 0
0 0 0 0 0 0 0 0 0 0 0 0 0 0 0 0 0 0 0 0 0 0 0 0 0 0 0 0 0 0 0 0 0 0 0 0 0 0 0 0 0 0 0
0 0 0 0 0 0 0 0 0 0 0 0 0 0 0 0 0 0 0 0 0 0 0 0 0 0 0 0 0 0 0 0 0 0 0 0 0 0 0 0 0 0 0
0 0 0 0 0 0 0 0 0 0 0 0 0 0 0 0 0 0 0 0 0 0 0 0 0 0 0 0 0 0 0 0 0 0 0 0 0 0 0 0 0 0 0
0 0 0 0 0 0 0 0 0 0 0 0 0 0 0 0 0 0 0 0 0 0 0 0 0 0 0 0 0 0 0 0 0 0 0 0 0 0 0 0 0 0 0
0 0 0 0 0 0 0 0 0 0 0 0 0 0 0 0 0 0 0 0 0 0 0 0 0 0 0 0 0 0 0 0 0 0 0 0 0 0 0 0 0 0 0
0 0 0 0 0 0 0 0 0 0 0 0 0 0 0 0 0 0 0 0 0 0 0 0 0 0 0 0 0 0 0 0 0 0 0 0 0 0 0 0 0 0 0
0 0 0 0 0 0 0 0 0 0 0 0 0 0 0 0 0 0 0 0 0 0 0 0 0 0 0 0 0 0 0 0 0 0 0 0 0 0 0 0 0 0 0
0 0 0 0 0 0 0 0 0 0 0 0 0 0 0 0 0 0 0 0 0 0 0 0 0 0 0 0 0 0 0 0 0 0 0 0 0 0 0 0 0 0 0
0 0 0 0 0 0 0 0 0 0 0 0 0 0 0 0 0 0 0 0 0 0 0 0 0 0 0 0 0 0 0 0 0 0 0 0 0 0 0 0 0 0 0
0 0 0 0 0 0 0 0 0 0 0 0 0 0 0 0 0 0 0 0 0 0 0 0 0 0 0 0 0 0 0 0 0 0 0 0 0 0 0 0 0 0 0
0 0 0 0 0 0 0 0 0 0 0 0 0 0 0 0 0 0 0 0 0 0 0 0 0 0 0 0 0 0 0 0 0 0 0 0 0 0 0 0 0 0 0
0 0 0 0 0 0 0 0 0 0 0 0 0 0 0 0 0 0 0 0 0 0 0 0 0 0 0 0 0 0 0 0 0 0 0 0 0 0 0 0 0 0 0
0 0 0 0 0 0 0 0 0 0 0 0 0 0 0 0 0 0 0 0 0 0 0 0 0 0 0 0 0 0 0 0 0 0 0 0 0 0 0 0 0 0 0
0 0 0 0 0 0 0 0 0 0 0 0 0 0 0 0 0 0 0 0 0 0 0 0 0 0 0 0 0 0 0 0 0 0 0 0 0 0 0 0 0 0 0
0 0 0 0 0 0 0 0 0 0 0 0 0 0 0 0 0 0 0 0 0 0 0 0 0 0 0 0 0 0 0 0 0 0 0 0 0 0 0 0 0 0 0
0 0 0 0 0 0 0 0 0 0 0 0 0 0 0 0 0 0 0 0 0 0 0 0 0 0 0 0 0 0 0 0 0 0 0 0 0 0 0 0 0 0 0
0 0 0 0 0 0 0 0 0 0 0 0 0 0 0 0 0 0 0 0 0 0 0 0 0 0 0 0 0 0 0 0 0 0 0 0 0 0 0 0 0 0 0
0 0 0 0 0 0 0 0 0 0 0 0 0 0 0 0 0 0 0 0 0 0 0 0 0 0 0 0 0 0 0 0 0 0 0 0 0 0 0 0 0 0 0
0 0 0 0 0 0 0 0 0 0 0 0 0 0 0 0 0 0 0 0 0 0 0 0 0 0 0 0 0 0 0 0 0 0 0 0 0 0 0 0 0 0 0
0 0 0 0 0 0 0 0 0 0 0 0 0 0 0 0 0 0 0 0 0 0 0 0 0 0 0 0 0 0 0 0 0 0 0 0 0 0 0 0 0 0 0
0 0 0 0 0 0 0 0 0 0 0 0 0 0 0 0 0 0 0 0 0 0 0 0 0 0 0 0 0 0 0 0 0 0 0 0 0 0 0 0 0 0 0
0 0 0 0 0 0 0 0 0 0 0 0 0 0 0 0 0 0 0 0 0 0 0 0 0 0 0 0 0 0 0 0 0 0 0 0 0 0 0 0 0 0 0
Wind_Speed
3 2 8 12 14 13 13 13 14 14 14 15 16 17 17 17 17 17 18 18 19 19 20 20 20 20 21 21 20 20 20 20 20 20 20 20 20 20 19 18 16 11 19
6 4 10 12 14 14 13 13 13 13 15 15 16 17 17 17 17 17 17 18 18 19 19 19 19 19 20 19 19 19 19 19 19 19 18 17 18 19 19 18 17 12 18
7 6 9 12 14 14 13 13 12 13 15 15 16 17 17 17 17 17 17 17 18 18 18 18 18 19 19 18 18 18 18 18 18 17 15 8 11 18 18 18 17 17 17
8 7 9 12 13 13 13 12 12 13 14 15 16 16 16 16 16 16 16 16 17 17 18 18 18 18 18 17 17 17 17 17 17 15 8 7 7 15 17 17 17 16 16
7 7 9 12 13 14 13 12 13 13 14 15 16 16 16 16 16 16 16 16 16 17 17 17 17 17 17 17 16 16 17 16 16 12 7 7 6 14 16 16 15 15 15
8 7 9 13 14 14 13 13 13 14 14 15 15 15 15 15 15 15 15 15 15 16 16 16 16 16 16 15 15 16 15 15 12 7 7 6 6 13 15 14 14 14 14
8 6 8 12 13 13 13 13 13 13 14 15 15 15 15 15 15 15 14 14 15 15 15 15 15 15 15 14 14 14 14 13 8 6 6 5 7 13 14 13 13 13 13
8 7 7 11 12 11 11 12 12 13 13 14 14 14 14 14 14 14 14 14 14 14 14 14 14 14 14 13 13 12 12 10 8 6 6 5 9 12 12 12 12 11 11
7 7 6 7 8 10 11 11 11 11 12 13 13 13 13 12 13 12 12 13 13 13 13 14 13 13 13 12 12 11 11 11 6 4 5 4 8 11 11 11 10 10 10
7 6 6 6 6 6 7 10 11 11 11 12 13 12 11 11 11 11 9 11 12 12 12 13 13 12 12 12 11 10 9 7 5 4 3 4 8 9 9 9 8 8 8
8 7 6 6 6 6 6 8 9 10 11 11 9 11 9 6 6 6 8 10 11 11 11 11 11 11 10 10 9 8 6 3 3 2 3 5 7 7 7 7 6 6 6
11 9 7 7 7 6 5 5 4 4 5 5 5 5 4 4 4 5 8 9 9 8 9 10 10 9 7 4 5 6 2 3 2 2 3 6 6 6 6 6 6 6 7
11 10 9 8 7 6 5 4 3 3 3 4 5 5 4 4 3 4 3 4 4 5 4 5 5 3 3 2 2 2 2 2 1 2 3 7 8 8 8 8 9 9 9
11 11 10 9 8 6 6 4 4 3 3 3 4 5 4 3 3 2 2 2 2 2 2 2 2 3 3 2 2 2 2 1 2 2 3 7 9 10 11 11 11 12 12
12 12 11 10 9 8 7 5 4 4 4 4 4 4 5 4 3 3 2 2 2 1 1 1 1 2 2 2 2 2 3 3 3 3 3 7 9 10 12 13 13 14 15
12 12 11 11 10 9 7 6 5 4 4 4 4 4 5 4 4 3 3 2 1 1 1 1 0 1 1 1 2 3 3 3 4 4 4 5 8 10 11 13 14 15 15
12 11 11 11 10 10 8 7 5 5 5 4 4 5 5 4 4 4 3 2 2 2 2 1 0 0 1 2 3 3 3 4 4 4 4 3 4 7 10 11 12 14 15
10 11 11 10 11 11 8 7 5 5 5 4 4 4 6 5 5 4 3 3 3 2 2 1 1 1 2 2 3 3 3 4 5 4 3 3 3 3 6 10 12 13 14
11 12 12 11 12 11 9 7 6 5 5 5 4 4 5 6 6 5 4 3 3 3 2 2 1 1 2 2 3 4 4 4 4 3 4 3 3 3 3 7 10 11 13
10 11 12 12 11 10 7 5 4 5 5 4 5 5 6 6 7 5 4 4 4 3 2 2 2 1 1 2 3 4 4 3 2 2 3 2 2 3 3 4 4 6 12
10 11 12 13 11 9 7 6 6 6 5 5 5 6 7 7 7 6 4 4 4 4 4 4 2 2 1 0 2 4 4 2 2 1 1 2 3 3 4 4 4 4 5
14 14 14 14 13 12 9 7 4 4 4 4 5 6 7 7 7 6 6 5 5 4 4 4 3 2 1 1 1 1 4 5 3 2 2 2 3 3 4 5 4 5 4
16 16 14 15 14 13 11 6 4 3 3 3 4 5 6 7 8 7 7 6 5 5 4 5 5 4 2 1 1 1 0 2 4 3 2 2 2 3 3 4 5 5 5
17 14 14 15 14 13 13 10 10 9 8 7 5 5 5 6 7 7 6 6 5 4 4 4 4 3 3 2 1 1 1 1 1 4 3 2 3 3 4 4 4 4 5
13 13 13 13 14 14 14 14 13 10 7 5 5 6 5 4 5 5 6 5 5 4 4 4 4 4 3 3 2 2 1 1 2 2 5 4 4 3 3 3 3 4 6
9 10 11 13 14 14 15 15 15 13 10 8 7 7 5 3 3 4 5 5 5 4 4 4 4 4 3 3 2 2 2 1 1 2 3 4 4 4 3 2 2 4 5
Wind_Direction
155 161 132 121 114 109 105 101 98 97 95 92 91 90 88 86 84 82 83 83 83 82 80 80 79 79 77 74 72 70 68 66 64 63 64 66 67 67 66 64 60 54 60
144 144 129 122 115 111 107 104 102 101 99 96 94 92 90 89 87 85 84 84 84 83 81 80 80 81 79 76 73 71 70 68 65 63 60 60 64 64 63 62 63 62 61
128 126 123 120 117 114 110 106 103 102 101 100 96 93 91 90 89 87 87 86 85 84 82 82 81 82 80 77 75 73 71 69 66 62 55 40 56 63 62 61 60 60 60
125 121 123 122 121 118 114 109 107 105 104 102 99 96 93 92 91 89 88 88 87 85 83 83 83 82 81 79 76 74 72 69 66 60 45 35 48 63 62 60 59 57 56
116 119 127 126 125 122 117 112 109 107 106 104 101 99 95 94 93 91 89 87 87 85 84 83 83 82 81 80 78 76 74 70 63 52 37 35 43 63 63 61 59 56 54
118 122 131 130 129 125 122 117 113 109 108 106 103 101 98 96 95 92 90 88 86 84 84 84 83 82 81 81 80 78 76 70 57 42 35 30 42 62 62 60 58 56 53
126 125 131 130 130 128 125 121 116 112 109 107 106 103 102 100 98 95 93 91 89 87 85 85 84 84 83 82 82 80 76 70 58 44 34 27 50 60 59 57 54 52 50
130 126 128 129 129 127 124 120 118 115 112 110 108 106 105 103 101 99 97 95 93 90 88 87 86 85 84 83 83 80 72 65 55 43 33 26 53 57 56 53 50 48 46
122 121 121 125 125 124 120 117 115 112 112 110 108 105 101 100 100 98 97 98 95 93 89 86 85 84 84 83 83 81 75 66 53 35 27 19 47 52 51 48 45 41 39
128 126 125 122 120 118 117 117 114 110 108 107 104 99 95 94 94 91 91 97 97 94 90 86 83 82 81 82 82 79 72 59 45 33 13 13 35 43 43 39 34 29 25
150 145 140 133 128 123 121 122 116 112 111 109 106 104 95 86 83 85 92 94 96 94 91 87 83 80 75 73 73 71 64 49 39 20 354 358 19 25 26 22 15 9 3
169 166 158 150 144 134 127 119 112 110 111 107 108 105 98 94 89 89 87 87 85 82 83 82 77 70 66 55 54 58 49 38 26 352 334 345 353 355 356 352 344 338 332
174 172 169 162 155 144 135 133 121 117 116 116 120 118 110 98 92 84 80 74 71 67 61 62 59 52 54 53 49 45 37 25 353 329 322 327 330 329 331 329 326 321 316
177 180 175 169 164 155 148 146 142 140 138 140 142 137 127 119 115 113 104 99 83 72 72 59 54 46 42 35 32 17 358 339 315 308 303 312 316 316 319 320 320 318 315
181 183 181 176 173 166 161 161 160 160 160 158 154 154 149 145 147 143 136 127 117 102 93 77 53 34 19 3 350 342 326 316 306 297 295 302 308 312 315 318 319 319 319
185 185 182 181 178 174 175 175 172 170 165 161 166 171 166 158 158 158 158 160 162 157 148 139 110 8 338 329 321 313 302 298 292 291 289 299 307 312 315 319 321 322 323
187 183 184 185 180 181 183 183 177 175 169 173 177 177 176 171 168 166 168 180 188 176 166 158 215 331 309 311 305 303 296 290 289 292 295 297 306 314 321 326 329 330 330
182 182 185 185 185 188 187 186 182 180 178 181 178 178 183 181 176 171 179 193 185 172 172 182 209 282 294 301 300 298 292 292 293 297 301 309 314 319 327 335 337 337 336
186 183 184 185 188 191 188 186 184 182 187 184 179 181 185 184 181 180 190 193 178 177 184 189 203 218 282 296 296 295 292 290 296 308 315 326 332 335 334 339 343 340 341
189 187 188 189 191 187 182 176 179 186 192 186 186 189 185 186 185 185 191 191 179 178 189 195 208 209 250 288 302 297 291 295 303 306 316 336 352 357 350 343 342 341 344
192 192 192 192 191 183 180 183 187 197 195 193 193 189 188 187 186 187 189 187 182 191 200 191 183 206 255 280 329 322 319 323 329 331 348 3 7 1 357 348 341 339 340
199 199 197 197 193 190 192 186 180 173 184 192 189 191 192 190 188 190 191 190 188 191 192 186 173 172 206 144 127 344 334 339 338 348 2 15 2 356 351 342 340 341 347
205 203 201 199 196 194 188 174 154 148 150 175 190 194 198 196 192 191 194 191 190 190 196 194 183 182 193 174 178 166 288 305 315 320 336 353 356 350 337 334 342 353 4
210 204 202 198 196 193 187 185 183 190 196 194 183 184 188 193 193 191 188 186 184 183 188 189 181 178 173 182 183 206 208 189 285 311 314 324 347 337 332 338 350 3 11
206 202 201 198 197 193 191 193 194 199 197 174 165 173 179 181 186 183 180 175 173 172 174 165 162 164 171 172 168 160 166 191 210 249 293 315 330 315 326 336 3 12 16
199 197 196 196 199 195 195 196 198 197 187 174 174 175 172 169 171 171 162 162 162 160 162 159 151 147 151 145 140 138 151 169 189 225 270 301 309 303 321 353 26 23 18